Location: ???????
(52.3000°N, 54.4667°E)
Time: 22:37:47
(UTC+00:00)

ISS - Pass Details

Date: 24 January 2020
Orbit: 415 x 423 km, 51.6° (Epoch: 19 February)

Event Time Altitude Azimuth Distance (km) Brightness Sun altitude
Rises 14:15:09 0° 217° (SW) 2,370 1.0 -12.3°
Reaches altitude 10° 14:17:30 10° 202° (SSW) 1,507 -0.4 -12.6°
Maximum altitude 14:20:15 23° 147° (SSE) 940 -2.2 -13.1°
Enters shadow 14:21:36 18° 113° (ESE) 1,101 -2.1 -13.2°
